#timestamp,LO_Frequency,Hit 
1503061215.1,286046990.7,P
1503061235.8,286046998.7,N
1503061255.7,286047001.2,N
1503061275.5,286046997.0,N
1503061295.3,286047001.2,N
1503061315.2,286047000.5,N
1503061335.0,286047001.0,N
1503061335.9,286047001.0,N
1503061355.7,286047000.2,N
1503061375.6,286046998.6,N
1503061395.4,286046997.3,N
1503061415.2,286046996.2,N
1503061435.1,286046991.9,N
1503061436.0,286046991.9,N
1503061455.8,286046990.8,N
1503061475.6,286046991.3,N
1503061495.5,286046991.1,N
1503061515.3,286046990.6,N
1503061535.1,286046990.1,N
1503061555.9,286046990.5,N
1503061575.7,286046992.9,N
1503061595.5,286046990.7,N
1503061615.3,286046996.0,N
1503061635.2,286046997.6,N
1503061655.0,286046996.9,N
1503061655.9,286046996.9,N
1503061675.7,286047002.0,N
1503061695.6,286047000.4,N
1503061715.4,286047000.6,N
1503061735.2,286047000.6,N
1503061755.1,286046999.0,N
1503061756.0,286046999.0,N
1503061775.8,286047002.3,N
1503061795.6,286047002.8,N
1503061815.5,286047000.1,N
1503061835.3,286047000.1,N
1503061855.1,286047004.0,N
1503061875.9,286047002.0,N
1503061895.7,286046999.6,N
1503061915.5,286046999.4,N
1503061935.4,286047001.0,N
1503061955.2,286047004.4,N
1503061975.0,286047003.8,N
1503061975.9,286047003.8,N
1503061995.8,286047006.0,N
1503062015.6,286047006.0,N
1503062035.4,286047004.7,N
1503062055.2,286047007.3,N
1503062075.1,286047003.2,N
1503062076.0,286047003.2,N
1503062095.8,286047004.1,N
1503062115.6,286047005.5,N
1503062135.5,286047005.4,N
1503062155.3,286047005.7,N
1503062175.1,286047003.8,N
1503062195.9,286047003.4,N
1503062215.7,286047003.9,N
1503062235.5,286047002.5,N
1503062255.4,286046999.1,N
1503062275.2,286046998.5,N
1503062295.0,286047002.7,N
1503062295.9,286047002.7,N
1503062315.8,286046998.2,N
1503062335.6,286047000.6,N
1503062355.4,286047003.7,N
1503062375.3,286047001.3,N
1503062395.1,286047004.3,N
1503062396.0,286047004.3,N
1503062415.8,286047003.7,N
1503062435.7,286047005.8,N
1503062455.5,286047007.3,P
1503062475.3,286047007.4,P
1503062495.2,286047004.6,N
1503062515.9,286047003.6,N
1503062535.7,286047004.4,N
1503062555.6,286047003.1,N
1503062575.4,286047002.0,N
1503062595.2,286047003.0,N
1503062615.1,286047005.8,P
1503062616.0,286047005.8,P
1503062635.8,286047003.4,P
1503062655.6,286047003.2,P
1503062675.5,286047000.9,N
1503062695.3,286046999.2,N
1503062715.1,286046997.9,N
1503062735.9,286046996.7,N
1503062755.7,286046990.1,P
1503062775.5,286046989.6,N
1503062795.4,286046984.4,P
1503062815.2,286046981.3,P
1503062835.0,286046989.3,N
1503062835.9,286046989.3,N
1503062855.8,286046990.0,N
1503062875.6,286046987.0,P
1503062895.5,286046999.2,N
1503062915.3,286046998.0,N
1503062935.1,286046995.3,N
1503062955.8,286046996.4,N
1503062975.7,286046993.4,N
1503062995.5,286046995.5,N
1503063015.3,286046995.0,N
1503063035.2,286047000.8,N
1503063055.0,286047001.1,N
1503063055.9,286047001.1,N
1503063075.7,286046998.1,N
1503063095.6,286046998.6,N
1503063115.4,286046999.1,N
1503063135.2,286047001.0,N
1503063155.1,286047007.0,N
1503063156.0,286047007.0,N
1503063175.8,286047005.1,N
1503063195.6,286046999.7,N
1503063215.5,286046999.5,N
1503063235.3,286046997.3,N
1503063255.1,286047000.3,N
1503063275.9,286046999.7,N
1503063295.7,286047000.5,N
1503063315.5,286047001.0,N
1503063335.4,286046999.1,N
1503063355.2,286046995.9,N
1503063375.0,286046994.3,N
1503063375.9,286046994.3,N
1503063395.7,286046990.1,N
1503063415.6,286046988.5,N
1503063435.4,286046991.4,N
1503063455.2,286046992.8,N
1503063475.1,286046996.0,N
1503063476.0,286046996.0,N
1503063495.8,286046999.3,N
1503063515.6,286046999.6,N
1503063535.5,286046999.1,N
1503063555.3,286046996.8,N
1503063575.1,286046996.0,N
1503063595.9,286046994.0,N
1503063615.7,286046993.7,N
1503063635.5,286046990.5,N
1503063655.4,286046992.5,N
1503063675.2,286046997.4,N
1503063695.0,286046997.9,N
1503063695.9,286046997.9,N
1503063715.8,286046997.2,N
1503063735.6,286046994.9,N
1503063755.4,286046996.6,N
1503063775.2,286046998.8,N
1503063795.1,286047001.5,N
1503063796.0,286047001.5,N
1503063815.8,286047002.9,N
1503063835.6,286047007.2,N
1503063855.5,286047003.7,N
1503063875.3,286047003.7,N
1503063895.1,286047002.1,N
1503063915.9,286047001.6,N
1503063935.7,286047004.2,N
1503063955.5,286047004.3,N
1503063975.4,286047005.9,N
1503063995.2,286047007.0,N
1503064015.0,286047005.8,N
1503064015.9,286047005.8,N
1503064035.8,286047005.6,N
1503064055.6,286047003.3,N
1503064075.4,286047004.0,N
1503064095.3,286047003.1,N
1503064115.1,286047004.3,N
1503064116.0,286047004.3,N
1503064135.8,286047004.0,N
1503064155.7,286046999.4,N
1503064175.5,286046999.0,N
1503064195.3,286046998.5,N
1503064215.1,286046998.5,N
1503064235.9,286047000.5,N
1503064255.7,286047001.7,N
1503064275.5,286047004.8,N
1503064295.4,286047004.0,N
1503064315.2,286047000.9,N
1503064335.0,286047002.3,N
1503064335.9,286047002.3,N
1503064355.8,286047001.9,N
1503064375.6,286047000.0,N
1503064395.4,286047002.1,N
1503064415.3,286047001.6,N
1503064435.1,286047000.3,N
1503064436.0,286047000.3,N
1503064455.8,286046999.4,N
1503064475.7,286046998.5,N
1503064495.5,286047000.5,N
1503064515.3,286046998.4,N
1503064535.2,286047000.7,N
1503064555.9,286046999.9,N
1503064575.7,286047000.4,N
1503064595.5,286046998.2,N
1503064615.4,286046994.3,N
1503064635.2,286046992.0,P
1503064655.1,286046992.9,N
1503064656.0,286046992.9,N
1503064675.8,286046994.8,N
1503064695.6,286046993.0,N
1503064715.4,286046991.4,N
1503064735.3,286046992.9,N
1503064755.1,286046994.2,N
1503064775.9,286046990.9,P
1503064795.7,286046997.2,N
